Location: *
(60.1759°S, 155.0663°W)
Time: 04:35:32
(UTC+00:00)

Cosmos 1627 Rocket - Pass Details

Date: 17 September 2019
Orbit: 950 x 1004 km, 82.9° (Epoch: 22 October)

Event Time Altitude Azimuth Distance (km) Brightness Sun altitude
Rises 13:13:51 0° 194° (SSW) 3,670 7.9 -22.8°
Reaches altitude 10° 13:16:22 10° 196° (SSW) 2,720 7.1 -22.5°
Maximum altitude 13:22:34 72° 278° (W) 1,019 4.4 -21.9°
Enters shadow 13:26:20 25° 357° (N) 1,848 5.6 -21.5°
